TimeMST,TemperatureF,Dew PointF,Humidity,Sea Level PressureIn,VisibilityMPH,Wind Direction,Wind SpeedMPH,Gust SpeedMPH,PrecipitationIn,Events,Conditions,WindDirDegrees,DateUTC
12:56 AM,7.0,3.9,87,29.96,10.0,SSE,5.8,-,N/A,,Mostly Cloudy,160,2012-12-14 07:56:00
1:56 AM,12.0,9.0,88,29.94,6.0,Calm,Calm,-,N/A,,Mostly Cloudy,0,2012-12-14 08:56:00
2:56 AM,10.9,7.0,84,29.91,7.0,Calm,Calm,-,N/A,,Clear,0,2012-12-14 09:56:00
3:30 AM,8.6,6.8,92,29.73,2.0,Calm,Calm,-,N/A,,Scattered Clouds,0,2012-12-14 10:30:00
3:32 AM,8.6,6.8,92,29.73,1.2,Calm,Calm,-,N/A,,Scattered Clouds,0,2012-12-14 10:32:00
3:34 AM,8.6,5.0,85,29.73,0.8,Calm,Calm,-,N/A,,Mist,0,2012-12-14 10:34:00
3:43 AM,10.4,6.8,85,29.73,0.2,Calm,Calm,-,N/A,Fog,Light Freezing Fog,0,2012-12-14 10:43:00
3:56 AM,9.0,7.0,92,29.90,0.2,ESE,3.5,-,N/A,Fog,Light Freezing Fog,120,2012-12-14 10:56:00
4:02 AM,8.6,6.8,92,29.71,1.2,SE,3.5,-,N/A,,Mostly Cloudy,140,2012-12-14 11:02:00
4:04 AM,8.6,6.8,92,29.71,2.5,SE,4.6,-,N/A,,Mostly Cloudy,140,2012-12-14 11:04:00
4:11 AM,10.4,6.8,85,29.71,6.0,SSE,3.5,-,N/A,,Scattered Clouds,150,2012-12-14 11:11:00
4:56 AM,12.0,8.1,84,29.89,6.0,Calm,Calm,-,N/A,,Mostly Cloudy,0,2012-12-14 11:56:00
5:40 AM,14.0,8.6,79,29.69,6.0,Calm,Calm,-,N/A,,Haze,0,2012-12-14 12:40:00
5:56 AM,12.9,9.0,84,29.89,5.0,Calm,Calm,-,N/A,,Overcast,0,2012-12-14 12:56:00
6:29 AM,12.2,10.4,92,29.69,5.0,Calm,Calm,-,N/A,,Overcast,0,2012-12-14 13:29:00
6:54 AM,10.4,8.6,92,29.69,7.0,SSE,5.8,-,N/A,,Scattered Clouds,150,2012-12-14 13:54:00
6:56 AM,10.9,8.1,88,29.89,7.0,SSE,5.8,-,N/A,,Scattered Clouds,150,2012-12-14 13:56:00
7:56 AM,12.9,9.0,84,29.88,6.0,Calm,Calm,-,N/A,,Scattered Clouds,0,2012-12-14 14:56:00
8:04 AM,10.4,8.6,92,29.68,5.0,Calm,Calm,-,N/A,,Mostly Cloudy,0,2012-12-14 15:04:00
8:56 AM,12.9,9.0,84,29.88,5.0,SSE,3.5,-,N/A,,Mostly Cloudy,160,2012-12-14 15:56:00
9:56 AM,17.1,14.0,88,29.89,6.0,Calm,Calm,-,N/A,,Overcast,0,2012-12-14 16:56:00
10:56 AM,17.6,15.8,93,29.67,5.0,NW,3.5,-,N/A,,Overcast,310,2012-12-14 17:56:00
11:56 AM,19.9,17.1,89,29.84,4.0,Calm,Calm,-,N/A,,Overcast,0,2012-12-14 18:56:00
12:56 PM,21.9,18.0,85,29.83,7.0,South,3.5,-,N/A,,Overcast,170,2012-12-14 19:56:00
1:56 PM,24.1,19.9,84,29.80,5.0,SSW,4.6,-,0.00,,Overcast,200,2012-12-14 20:56:00
2:56 PM,25.0,19.9,81,29.80,10.0,Calm,Calm,-,N/A,,Overcast,0,2012-12-14 21:56:00
3:56 PM,25.0,21.0,85,29.82,3.0,NW,4.6,-,0.00,Snow,Light Snow,320,2012-12-14 22:56:00
4:23 PM,24.8,21.2,86,29.65,2.0,NW,3.5,-,0.00,Snow,Light Snow,310,2012-12-14 23:23:00
4:34 PM,24.8,21.2,86,29.65,1.2,NNW,3.5,-,0.00,Snow,Light Snow,330,2012-12-14 23:34:00
4:44 PM,24.8,21.2,86,29.65,0.8,NNW,3.5,-,0.00,Snow,Light Snow,330,2012-12-14 23:44:00
4:51 PM,24.8,21.2,86,29.66,0.8,NNW,3.5,-,0.00,Snow,Light Snow,340,2012-12-14 23:51:00
4:56 PM,24.1,21.0,88,29.83,1.0,North,3.5,-,0.00,Snow,Light Snow,350,2012-12-14 23:56:00
5:22 PM,24.8,21.2,86,29.67,0.8,Calm,Calm,-,0.01,Snow,Light Snow,0,2012-12-15 00:22:00
5:36 PM,24.8,21.2,86,29.67,1.0,Calm,Calm,-,0.02,Snow,Light Snow,0,2012-12-15 00:36:00
5:56 PM,25.0,21.9,88,29.83,1.2,ENE,3.5,-,0.02,Snow,Light Snow,70,2012-12-15 00:56:00
6:34 PM,24.8,21.2,86,29.68,1.5,Calm,Calm,-,N/A,Snow,Light Snow,0,2012-12-15 01:34:00
6:45 PM,24.8,21.2,86,29.69,1.2,Calm,Calm,-,0.01,Snow,Light Snow,0,2012-12-15 01:45:00
6:56 PM,24.8,21.2,86,29.69,1.0,WNW,3.5,-,N/A,Snow,Light Snow,300,2012-12-15 01:56:00
7:15 PM,24.8,21.2,86,29.69,1.5,Calm,Calm,-,0.01,Snow,Light Snow,0,2012-12-15 02:15:00
7:33 PM,24.8,21.2,86,29.70,1.2,Calm,Calm,-,0.01,Snow,Light Snow,0,2012-12-15 02:33:00
7:56 PM,25.0,21.9,88,29.87,1.2,Calm,Calm,-,0.01,Snow,Light Snow,0,2012-12-15 02:56:00
8:15 PM,24.8,21.2,86,29.71,1.5,Calm,Calm,-,0.00,Snow,Light Snow,0,2012-12-15 03:15:00
8:31 PM,24.8,23.0,93,29.72,1.2,Calm,Calm,-,0.01,Snow,Light Snow,0,2012-12-15 03:31:00
8:56 PM,25.0,23.0,92,29.89,1.5,Calm,Calm,-,0.01,Snow,Light Snow,0,2012-12-15 03:56:00
9:19 PM,24.8,21.2,86,29.73,2.0,Calm,Calm,-,0.00,Snow,Light Snow,0,2012-12-15 04:19:00
9:56 PM,25.0,21.9,88,29.89,2.5,Calm,Calm,-,0.00,Snow,Light Snow,0,2012-12-15 04:56:00
10:42 PM,24.8,21.2,86,29.75,1.8,ESE,4.6,-,0.00,Snow,Light Snow,120,2012-12-15 05:42:00
10:56 PM,24.8,21.2,86,29.75,1.5,ESE,4.6,-,N/A,Snow,Light Snow,120,2012-12-15 05:56:00
11:11 PM,24.8,21.2,86,29.75,2.5,Calm,Calm,-,0.00,Snow,Light Snow,0,2012-12-15 06:11:00
11:38 PM,23.0,21.2,93,29.76,1.8,East,3.5,-,0.00,,Overcast,80,2012-12-15 06:38:00
11:56 PM,21.0,19.0,92,29.91,1.2,East,3.5,-,0.00,,Overcast,80,2012-12-15 06:56:00